Altus AFB, OK

3:54 AM CDT on June 29, 2017 (GMT -0500)
Altus Air Force Base

Weather History for KLTS - July, 2013

Change the Weather History Date:

Friday, July 5, 2013

  Actual Average Record
Temperature  
Mean Temperature 84 °F -  
Max Temperature 100 °F 93 °F 107 °F (1996)
Min Temperature 67 °F 70 °F 64 °F (1997)
Cooling Degree Days 18    
Growing Degree Days 34 (Base 50)    
Moisture  
Dew Point 53 °F    
Average Humidity 35    
Maximum Humidity 74    
Minimum Humidity 16    
Precipitation  
Precipitation 0.00 in - - ()
Sea Level Pressure  
Sea Level Pressure 29.87 in    
Wind  
Wind Speed 14 mph (SSE)    
Max Wind Speed 22 mph    
Max Gust Speed 29 mph    
Visibility 10 miles    
Events      
Averages and records for this station are not official NWS values.
T = Trace of Precipitation, MM = Missing Value Source: NWS Daily Summary

Daily Weather History Graph

Daily Weather History Graph

Search for Another Location

Airport or City:

Trip Planner

Search our weather history database for the weather conditions in past years. The results will help you decide how hot, cold, wet, or windy it might be!

Date:

Astronomy

Jul. 05, 2013 Rise Set
Actual Time 6:29 AM CDT 8:53 PM CDT
Civil Twilight 6:00 AM CDT 9:22 PM CDT
Nautical Twilight 5:24 AM CDT 9:58 PM CDT
Astronomical Twilight 4:44 AM CDT 10:38 PM CDT
Moon 4:27 AM CDT (7/5) 6:51 PM CDT (7/5)
Length of Visible Light 15h 22m
Length of Day
14h 23m
Waning Crescent, 6% of the Moon is Illuminated
Jul 5
Waning Crescent
Jul 8
New
Jul 15
First Quarter
Jul 22
Full
Jul 29
Last Quarter

Hourly Weather History & Observations

Time (CDT) Temp. Heat Index Dew Point Humidity Pressure Visibility Wind Dir Wind Speed Gust Speed Precip Events Conditions
12:58 AM 77.4 °F - 53.6 °F 44% 29.94 in 10.0 mi SE 16.1 mph - N/A   Clear
1:58 AM 75.0 °F - 55.9 °F 51% 29.94 in 10.0 mi ESE 11.5 mph - N/A   Clear
2:58 AM 74.3 °F - 58.8 °F 58% 29.93 in 10.0 mi SE 11.5 mph - N/A   Clear
3:58 AM 72.0 °F - 59.0 °F 64% 29.93 in 10.0 mi ESE 8.1 mph - N/A   Clear
4:58 AM 69.3 °F - 58.5 °F 68% 29.93 in 10.0 mi ESE 8.1 mph - N/A   Clear
5:58 AM 67.3 °F - 58.8 °F 74% 29.93 in 10.0 mi ESE 10.4 mph - N/A   Partly Cloudy
6:58 AM 68.2 °F - 59.4 °F 73% 29.95 in 10.0 mi ESE 11.5 mph - N/A   Clear
7:58 AM 72.0 °F - 59.4 °F 64% 29.92 in 10.0 mi SE 16.1 mph - N/A   Clear
8:58 AM 76.5 °F - 59.0 °F 55% 29.92 in 10.0 mi SE 13.8 mph - N/A   Clear
9:58 AM 82.4 °F 82.0 °F 56.8 °F 42% 29.92 in 10.0 mi SSE 12.7 mph - N/A   Clear
10:58 AM 87.1 °F 85.3 °F 54.9 °F 33% 29.91 in 10.0 mi South 15.0 mph 19.6 mph N/A   Clear
11:58 AM 92.1 °F 90.2 °F 55.2 °F 29% 29.91 in 10.0 mi South 10.4 mph 20.7 mph N/A   Clear
12:56 PM 95.0 °F 93.0 °F 55.4 °F 26% 29.93 in 10.0 mi SSE 20.7 mph 24.2 mph N/A   Clear
1:30 PM 96.8 °F 95.1 °F 55.4 °F 25% 29.91 in 10.0 mi SSW 16.1 mph 24.2 mph N/A   Partly Cloudy
1:58 PM 97.5 °F 95.3 °F 54.0 °F 23% 29.85 in 10.0 mi SSE 16.1 mph 23.0 mph N/A   Partly Cloudy
2:36 PM 98.6 °F - 51.8 °F 21% 29.89 in 10.0 mi SSE 16.1 mph 25.3 mph N/A   Clear
2:47 PM 98.6 °F - 51.8 °F 21% 29.88 in 10.0 mi South 18.4 mph 28.8 mph N/A   Clear
2:58 PM 99.5 °F - 49.6 °F 19% 29.82 in 10.0 mi SSE 21.9 mph 26.5 mph N/A   Clear
3:58 PM 99.0 °F - 46.6 °F 17% 29.80 in 10.0 mi South 17.3 mph 28.8 mph N/A   Clear
4:58 PM 100.2 °F - 47.1 °F 16% 29.79 in 10.0 mi SSE 13.8 mph 27.6 mph N/A   Clear
5:10 PM 100.4 °F - 46.4 °F 16% 29.83 in 10.0 mi South 18.4 mph 27.6 mph N/A   Partly Cloudy
5:20 PM 100.4 °F - 46.4 °F 16% 29.83 in 10.0 mi SSE 17.3 mph 27.6 mph N/A   Clear
5:21 PM 100.4 °F - 46.4 °F 16% 29.83 in 10.0 mi SSE 20.7 mph 27.6 mph N/A   Clear
5:58 PM 99.1 °F - 46.6 °F 17% 29.77 in 10.0 mi SSE 16.1 mph 25.3 mph N/A   Clear
6:58 PM 98.1 °F - 46.8 °F 17% 29.76 in 10.0 mi South 18.4 mph - N/A   Clear
7:58 PM 95.2 °F - 46.8 °F 19% 29.77 in 10.0 mi South 15.0 mph - N/A   Clear
8:58 PM 89.6 °F - 46.6 °F 23% 29.78 in 10.0 mi SSE 9.2 mph - N/A   Clear
9:58 PM 83.7 °F - 45.9 °F 27% 29.81 in 10.0 mi ESE 9.2 mph - N/A   Clear
10:58 PM 84.0 °F - 50.7 °F 31% 29.83 in 10.0 mi SE 15.0 mph - N/A   Clear
11:58 PM 82.0 °F 81.2 °F 53.1 °F 37% 29.84 in 10.0 mi SE 13.8 mph - N/A   Clear